FENGYUN 1C DEB *, 46990

Orbit data source: Space-Track

FENGYUN 1C DEB *, 46990 is space debris in SSO originally from a launch on Mon, 10 May 1999 UTC launched from the Taiyaun Space Center, China (TSC). Fengyun 1C debris stems from the Chinese weather satellite Fengyun-1C, which was intentionally destroyed by a Chinese anti-satellite missile in 2007. This event dramatically increased the amount of space debris, with thousands of trackable fragments posing hazards to satellites and human spaceflight. The Fengyun 1C debris cloud has become a focal point in discussions about space sustainability and the need for international regulations to prevent the creation of new debris.

Loading next visibility...
Identifier
46990, 1999-025EZQ
Orbit
SSO
Country
Flag of CNCN / PRC
Related business
Manufacturer
Unknown
Mission
Spacecraft
Bus & Motor
Unknown
Mass
Unknown
Launch date (UTC)
1999-05-10 (26 years ago)
Launch vehicle
Unknown
Launch site
Taiyaun Space Center, China (TSC)
Object type
Payload
Rocket body
Debris
Shape & HBR
Unknown shape, 0.1 m
Radar Cross Section
Small (<0.1 m²)

Expand to show TLE details & history
Last TLE update: 2 days ago

TLE from 2 days ago
0 FENGYUN 1C DEB *
1 46990U 99025EZQ 25299.34724948  .00022709  00000-0  52165-2 0  9992
2 46990  98.2347 146.4099 0362260 200.0507 340.4524 14.22133424 78552
Epoch: 2025-10-26T08:20Z
TLE epoch observation values (Epoch: 2025-10-26T08:20:02.355Z)
Latitude
0.82376°
Longitude
166.5539°
Altitude
576.38 km
Speed
7.7 km/s
True Right ascension
21h 46m 06s
True Declination
0° 49' 07"
Sunlit
Object was in full shadow at epoch
Visualization orbit readout
Latitude
Unknown
Longitude
Unknown
Altitude
Unknown
Speed
Unknown
Apparent Right ascension
Unknown
Apparent Declination
Unknown
Sunlit
N/A
Visualization observer readout
Local Sidereal Time
21:24:23
Azimuth
Unknown
Elevation
Unknown
Doppler factor
Unknown
Orbital elements
Apogee altitude
1,075.863 km
Perigee altitude
554.686 km
Semi-major axis
7,193.412 km
Eccentricity
0.03623
Inclination
98.2347°
RAAN
146.4099°
Arg. of periapsis
200.0507°
True anomaly
339.00181°
Mean anomaly
340.4524°
Eccentric anomaly
339.73344°
Mean motion
3.55747 °/min
Orbital period
101.2 mins
BSTAR
0.0052165
Loading maneuver chart data...
Computing Atmospheric mass density...

Documentation

Showing up to 5 results
|